313  
ASUS43 KGLD 210408  
RWRGLD  
 
GOODLAND FORECAST AREA HOURLY WEATHER ROUNDUP  
NATIONAL WEATHER SERVICE GOODLAND KS  
900 PM MST MON NOV 20 2017  
   
..OFFICIAL OBSERVATIONS
 
 
 
CITY SKY/WX TMP DP RH WIND PRES REMARKS
 
GOODLAND KS CLOUDY 52 18 26 NE5 29.81R  
HILL CITY KS CLOUDY 51 23 33 W7 29.76R  
IMPERIAL NEB CLOUDY 51 20 29 N9 29.78S  
MCCOOK NEB CLOUDY 48 26 42 NW10 29.77R  
AKRON CO CLOUDY 50 16 25 NW13 29.84R  
BURLINGTON CO CLOUDY 41 15 35 CALM 29.85R  
LIMON CO CLOUDY 33 17 51 CALM 29.90R  

 
   
..UNOFFICIAL OBSERVATIONS
 
 
 
CITY SKY/WX TMP DP RH WIND PRES REMARKS
 
COLBY KS CLOUDY 46 27 46 NW8 29.82R  
LENORA KS N/A 52 32 46 NW5 N/A  
NORTON KS CLEAR 48 16 27 NW10 29.75  
SHARON SPRINGS N/A 46 19 34 CALM N/A  
TRENTON NEB N/A 49 32 52 N5 N/A  
YUMA CO FAIR 41 21 45 SW10 29.82R  

 
 
 
CLICK HERE TO GO TO PREVIOUS BULLETINS.

The Nexlab KS Page
The Nexlab CO Page
The Nexlab NE Page Main Text Page